Location: Medlow Airstrip Trail, Medlow Bath NSW 2780, Australia
(33.6682°S, 150.3233°E)
Time: 14:52:25
(UTC+11:00)

Explorer 11/Cluster Stage 4 - Pass Details

Date: 01 October 2019
Orbit: 467 x 1259 km, 28.8° (Epoch: 20 October)

Event Time Altitude Azimuth Distance (km) Brightness Sun altitude
Rises 06:11:26 0° 296° (WNW) 2,494 8.6 6.4°
Reaches altitude 10° 06:13:41 10° 306° (NW) 1,623 7.8 6.8°
Maximum altitude 06:16:59 32° 11° (N) 851 7.0 7.5°
Drops below altitude 10° 06:20:33 10° 75° (ENE) 1,763 10.6 8.3°
Sets 06:23:06 0° 85° (E) 2,750 11.9 8.8°
